Theta_e
308 307 307 307 306 306 305 304 304 304 304 304 304 305 306 307 309 308 306 305 305 311 315 312 310 311 307 306 306 305 306 306 304 304 304 305 304 304 305 306 305 306 306 305 306 306 305 308 308 307 308 306 301 298 298 298 299 300 303 304 302 301 303 304 306 306 304 300 298 298 299 301 303 302 301 303 305 305 304 304 303 302 303 303 303 304 304
307 307 307 307 306 305 304 303 304 304 304 304 304 304 305 305 306 306 305 304 307 313 314 313 313 310 306 307 307 305 305 306 306 306 305 304 303 303 305 306 305 305 305 304 306 306 305 307 307 304 305 305 298 296 297 298 300 301 302 303 302 303 306 306 306 307 305 303 303 302 302 303 303 303 301 302 305 305 304 302 302 302 303 302 303 304 304
307 307 307 306 305 304 303 303 303 303 304 304 304 304 306 308 309 308 306 304 306 310 310 310 310 309 308 309 307 306 306 304 303 305 305 303 302 303 304 304 303 304 304 305 306 306 305 305 305 302 303 304 298 296 297 298 299 299 298 298 300 304 306 304 305 306 306 307 308 306 305 304 303 303 303 301 303 304 303 301 302 303 303 301 302 303 302
307 307 306 305 304 303 303 303 303 304 304 303 304 304 305 309 310 311 310 307 305 305 305 306 308 308 308 308 306 307 308 305 301 302 304 303 301 302 303 302 303 304 305 306 307 307 306 304 304 303 303 304 300 296 297 298 298 298 296 296 298 302 304 303 304 306 306 306 306 305 304 302 302 304 304 302 302 301 300 300 301 302 301 300 301 301 299
307 306 304 304 303 303 303 303 303 304 303 303 304 304 304 308 311 310 309 309 308 306 305 305 307 306 306 307 307 306 308 307 303 303 304 303 301 303 303 303 304 306 305 306 306 306 307 305 303 303 302 302 299 296 297 298 297 297 297 296 298 302 304 304 304 305 305 304 302 302 302 302 302 303 302 302 303 301 299 300 300 300 300 300 300 298 297
305 304 303 303 303 303 303 303 303 303 303 303 303 305 306 308 308 305 305 309 309 308 307 305 306 307 305 306 307 306 307 308 306 305 304 302 302 304 305 305 305 306 306 305 305 306 307 306 306 304 302 302 301 300 299 299 297 297 297 296 297 301 303 303 303 303 302 301 301 301 302 302 301 301 299 299 301 301 300 300 299 299 299 299 298 296 296
304 303 303 303 303 303 303 303 303 302 303 302 302 306 307 307 307 304 304 307 306 304 304 303 306 309 305 305 307 307 307 308 306 305 304 304 303 303 305 307 305 305 305 304 305 306 306 306 306 304 302 302 303 303 302 300 298 298 298 296 296 300 303 303 303 303 302 302 302 302 301 301 299 298 298 297 298 299 298 298 297 296 296 296 295 295 295
303 303 303 303 303 303 302 303 303 302 303 302 302 305 306 306 307 305 305 306 303 301 302 303 307 309 305 306 308 305 307 308 305 303 304 306 305 303 305 307 305 304 305 303 305 306 304 304 303 301 301 302 302 302 301 300 299 298 298 298 296 298 303 303 302 303 304 302 302 302 301 300 297 295 296 296 295 296 295 295 295 295 295 295 294 295 295
303 303 303 303 303 303 303 303 303 302 302 303 302 303 304 304 305 304 306 307 304 303 303 303 308 309 305 307 308 306 307 307 305 304 303 303 305 305 305 306 305 304 305 305 305 304 302 303 302 300 300 300 300 300 299 299 300 300 300 299 298 299 302 302 301 304 304 302 302 302 300 298 296 294 294 294 294 294 294 294 295 295 295 295 295 295 293
304 304 304 304 304 304 303 303 303 302 302 302 302 303 302 302 304 303 305 308 305 303 305 305 307 308 305 305 305 305 306 304 304 306 303 301 302 302 301 303 304 305 307 306 303 300 299 300 299 298 299 299 299 299 298 298 299 300 300 300 300 300 300 301 302 303 303 302 303 302 300 300 298 295 293 294 293 293 293 293 294 294 294 294 293 292 290
304 304 305 305 305 304 304 304 304 303 303 302 302 303 302 302 303 302 305 310 307 302 304 308 309 308 305 304 304 304 305 305 304 305 305 304 302 300 300 302 303 304 305 303 299 298 298 297 297 297 297 298 298 298 298 297 297 298 299 299 300 300 300 301 302 302 303 303 302 301 302 302 298 294 293 294 293 292 292 293 294 293 292 291 291 289 288
305 305 305 305 305 304 304 304 304 303 303 303 302 302 302 302 302 303 306 311 308 303 305 307 304 304 304 302 303 304 305 304 303 302 303 304 302 302 301 301 304 304 301 299 298 298 297 297 297 297 298 298 298 298 298 298 296 296 296 298 299 300 300 301 301 301 303 303 302 303 304 301 295 292 293 293 292 292 292 293 293 291 289 288 288 288 287
305 305 305 305 304 304 304 303 304 303 303 303 302 302 302 301 302 303 305 309 308 305 305 304 299 300 302 302 303 304 302 301 300 300 301 302 302 303 302 300 302 302 299 298 298 297 298 300 299 299 298 298 299 299 299 298 298 297 296 297 298 299 300 301 301 302 302 302 302 302 300 296 293 293 292 292 292 292 292 293 291 288 287 287 287 287 287
305 304 304 304 303 303 304 303 303 303 303 303 302 302 302 302 302 302 303 307 307 302 302 305 302 301 303 302 302 303 302 300 300 300 301 300 300 302 301 299 299 299 298 298 297 297 301 303 302 302 300 300 301 301 299 298 297 297 297 296 296 297 299 300 301 302 301 300 301 301 298 296 293 292 291 291 291 291 291 292 291 287 287 287 286 286 286
304 303 303 304 303 303 303 303 303 303 303 303 302 302 302 302 302 302 302 305 307 304 302 304 303 301 303 303 302 303 305 304 302 301 300 298 299 300 300 298 298 298 297 297 297 299 302 302 304 305 304 303 303 303 300 298 297 296 296 296 296 297 297 298 300 301 301 300 299 299 300 298 293 291 291 291 291 291 291 292 292 288 286 287 287 285 285
303 303 303 303 303 303 303 303 303 303 303 303 302 302 302 302 301 302 302 303 307 308 303 299 298 299 302 303 302 302 303 304 303 303 302 301 301 301 299 298 298 297 297 297 297 300 302 302 303 304 304 303 302 302 301 300 299 297 296 296 297 297 298 299 299 300 300 298 298 298 299 296 292 290 291 291 291 290 290 292 293 289 286 287 287 285 285
303 303 303 303 303 303 303 303 303 303 303 303 303 302 302 302 301 302 302 302 304 304 301 298 299 301 302 303 303 302 301 301 302 303 304 304 302 300 299 298 298 297 297 299 301 301 303 303 303 304 304 302 300 301 302 300 299 298 297 297 298 298 299 299 299 298 298 297 298 298 296 292 290 290 290 290 290 290 291 292 292 288 286 287 286 285 285
303 303 303 303 303 303 303 303 303 303 303 303 303 303 302 302 302 301 302 303 303 300 299 299 300 301 301 301 302 300 299 300 301 302 303 302 301 300 299 298 299 299 298 300 303 303 303 303 302 302 303 301 300 301 300 299 298 297 296 297 297 296 296 298 297 297 297 297 297 297 295 290 289 289 289 289 289 290 291 290 289 287 286 285 284 283 283
303 303 302 302 303 303 303 303 303 303 303 303 303 303 302 302 302 301 302 303 303 301 299 299 299 299 299 299 299 300 299 300 301 303 305 304 301 299 298 298 299 299 298 299 302 302 302 303 301 300 302 302 300 298 297 295 295 295 294 295 295 293 294 296 296 295 296 295 296 297 295 290 287 288 289 289 289 289 289 288 286 285 285 284 283 282 282
302 302 302 302 303 303 303 303 303 303 303 303 303 303 303 302 302 302 302 302 302 300 298 298 298 298 298 298 299 300 300 300 301 301 303 304 300 299 302 302 300 299 300 300 302 302 302 302 301 300 301 302 299 298 296 293 293 293 293 294 293 292 293 295 295 294 294 294 294 295 294 290 287 287 288 289 288 288 287 286 285 284 283 282 282 281 281
302 302 302 302 302 303 303 303 303 303 303 303 303 303 303 302 301 301 302 301 302 300 298 297 298 297 297 298 297 298 298 298 298 298 299 300 299 300 304 303 299 299 299 299 301 301 300 301 301 300 300 300 299 298 297 295 293 292 292 293 292 291 292 293 293 293 293 293 293 292 291 289 287 287 287 288 287 286 285 284 284 283 282 281 281 280 279
303 302 302 302 302 302 303 303 303 303 302 303 303 303 303 302 301 302 301 301 301 300 297 297 297 296 297 297 297 297 297 297 297 296 296 298 299 299 300 299 298 298 297 297 300 302 301 300 300 300 300 299 298 297 296 296 295 293 292 293 292 290 290 290 291 292 291 290 291 290 288 287 287 286 287 287 285 284 283 283 282 282 281 280 280 279 277
303 303 303 303 303 303 303 303 303 303 303 302 303 303 302 302 301 302 301 300 300 298 297 296 297 297 297 297 297 297 297 297 297 296 296 297 298 299 298 298 297 297 297 296 298 299 300 300 299 299 299 297 296 296 296 295 294 292 292 291 290 289 288 289 290 290 288 288 289 288 287 287 286 286 286 285 283 283 282 281 281 280 279 279 279 278 276
304 304 303 304 303 303 303 303 303 303 303 302 302 302 302 302 302 302 301 300 300 299 298 296 296 296 297 297 297 297 297 297 297 296 296 296 297 299 298 297 296 297 297 296 295 296 297 298 297 298 297 295 295 297 296 293 292 292 291 290 289 289 288 288 289 288 287 288 289 287 286 286 285 285 285 283 282 282 281 281 280 279 278 278 278 277 276
305 305 304 304 304 303 303 303 303 303 303 302 302 302 302 302 301 301 301 301 301 301 300 297 296 296 297 297 297 297 297 297 297 296 296 296 295 297 297 295 295 296 296 295 295 296 297 297 297 298 297 294 294 295 293 292 291 291 290 288 288 288 288 287 287 286 286 288 288 286 286 285 285 285 284 282 281 281 281 280 279 278 278 277 277 277 276
305 305 305 304 304 304 303 303 303 303 303 303 302 301 301 302 302 301 301 301 300 301 301 298 295 296 297 297 297 297 297 297 296 296 296 296 295 295 295 294 295 295 294 295 295 296 296 296 296 296 295 293 292 292 291 290 289 288 288 287 287 287 287 286 285 285 286 287 287 286 285 284 284 284 282 281 280 280 279 279 278 278 277 276 276 275 275
304 304 304 304 304 304 304 303 303 303 303 303 302 301 301 301 301 301 301 301 302 303 302 298 295 296 296 296 296 296 296 296 296 295 295 295 295 295 294 294 294 294 294 295 296 295 294 293 292 293 292 292 291 291 290 289 288 287 287 286 286 286 285 285 285 285 285 285 285 284 283 283 283 283 281 280 280 279 278 278 277 277 276 275 274 274 273
303 302 303 303 303 303 304 303 303 303 303 303 302 302 301 301 302 302 301 301 302 303 301 297 296 297 297 296 296 296 296 295 295 295 295 295 294 295 294 294 294 295 295 295 295 294 293 292 292 292 291 291 291 291 290 289 289 287 286 285 285 285 284 284 284 284 284 285 284 283 282 282 282 281 280 280 279 278 278 277 277 276 275 274 273 273 272
302 302 302 302 302 303 303 303 303 302 303 303 302 301 301 301 301 301 301 301 301 301 299 298 297 297 296 296 295 295 295 295 295 295 295 295 294 294 294 294 295 295 295 295 294 293 292 292 291 291 291 291 291 291 291 290 289 286 285 285 285 284 284 284 284 284 284 284 283 282 281 281 280 279 279 279 278 277 277 277 276 275 274 273 272 272 272
302 302 302 302 302 302 303 302 302 302 302 303 302 302 302 302 301 301 301 300 300 300 300 300 299 296 295 295 295 295 295 295 295 295 295 295 294 294 294 295 295 295 295 294 294 293 292 291 291 290 290 291 291 291 291 290 288 286 285 284 284 284 284 284 283 283 283 282 281 281 280 279 279 279 278 278 277 277 276 275 274 274 273 272 272 271 271
302 302 302 301 302 302 302 302 302 302 302 303 302 302 303 302 302 301 300 300 300 300 300 299 297 296 295 295 294 295 295 294 294 295 295 295 294 294 294 295 294 294 294 293 292 292 292 291 290 290 290 290 290 290 289 289 288 286 284 284 284 283 283 283 282 282 282 281 280 279 278 278 278 278 277 277 276 276 275 274 273 273 272 271 271 270 270
303 303 302 302 302 302 302 302 301 302 302 303 303 302 302 302 302 301 301 300 300 300 300 299 298 298 297 296 294 294 295 295 295 294 294 294 294 294 294 294 294 293 293 293 292 291 290 290 289 289 289 289 289 288 287 287 286 285 284 283 283 283 283 282 281 281 280 279 278 277 277 278 278 277 277 276 276 274 273 273 272 272 271 270 270 269 269
303 302 302 302 302 302 302 301 301 301 302 302 302 302 302 302 302 302 301 301 300 300 300 300 300 300 298 296 295 294 295 295 295 295 294 294 294 294 294 294 293 293 293 293 292 291 290 290 290 289 289 289 288 287 286 285 284 284 284 283 282 282 282 281 280 280 279 278 277 276 277 277 277 276 276 275 274 273 272 272 271 270 270 269 269 268 268
303 302 302 302 302 302 302 301 301 301 301 302 302 302 301 301 301 301 301 301 300 299 299 299 300 300 298 297 296 295 294 295 295 295 295 295 294 294 295 294 294 293 293 292 292 291 291 290 290 289 289 288 288 287 286 285 284 284 283 282 282 282 281 280 279 279 278 276 276 276 276 276 276 275 275 274 273 272 271 271 270 269 269 268 268 267 267
303 303 303 303 303 302 302 301 301 301 301 302 302 301 301 301 301 300 300 300 299 299 297 297 298 299 298 299 299 296 294 294 295 294 294 295 294 294 294 295 294 293 292 292 292 291 290 290 290 290 289 287 287 286 285 284 284 283 282 281 281 281 280 279 278 277 276 276 275 276 276 276 275 274 273 272 271 271 270 270 269 269 268 267 267 267 266
303 303 303 303 303 302 302 302 301 301 301 301 301 301 301 301 300 299 298 298 298 298 297 296 297 296 296 298 298 295 294 295 295 294 294 295 294 294 294 295 294 292 291 291 291 290 289 289 290 289 288 286 286 285 284 284 283 282 281 281 281 280 279 278 277 276 275 275 275 275 275 274 273 273 272 271 270 270 270 269 268 268 267 267 266 266 265
303 303 303 303 303 302 302 302 301 301 301 301 301 301 301 301 301 300 299 297 297 297 296 296 295 293 293 295 295 294 295 296 296 294 294 295 294 294 294 295 295 293 292 292 291 289 289 289 289 288 287 286 285 285 283 283 282 281 281 281 280 279 278 277 276 275 275 274 275 275 274 273 272 272 271 270 270 269 269 268 268 267 267 266 266 265 265
303 303 303 303 303 302 302 302 301 301 301 300 301 301 301 301 301 300 298 297 297 296 295 294 293 292 292 294 295 294 294 295 295 295 295 294 294 294 294 294 294 293 292 291 289 288 289 288 288 287 287 286 285 284 283 282 281 281 280 280 280 279 278 277 275 274 274 274 274 274 273 272 271 271 270 269 269 269 268 268 268 267 267 267 266 265 266
303 303 303 303 303 302 302 302 301 301 301 300 301 301 300 300 301 300 298 297 296 294 294 293 292 291 292 293 293 293 292 292 294 296 295 294 294 295 295 294 293 292 292 291 290 289 289 289 287 287 287 286 285 283 282 282 281 280 280 280 279 278 277 276 274 274 274 274 274 273 273 272 271 270 270 269 269 269 268 268 268 267 267 267 266 266 265
303 303 303 303 302 302 302 301 301 301 301 301 302 302 300 300 299 298 298 298 296 293 293 293 292 292 291 291 292 292 292 292 293 294 293 293 293 294 294 293 292 291 293 292 289 288 290 289 288 288 288 287 285 283 282 282 281 280 280 279 279 278 276 275 274 273 273 273 273 273 272 271 271 270 269 269 268 268 268 267 267 267 267 267 266 266 265
303 303 303 303 302 303 303 302 301 301 301 301 303 302 300 299 298 296 297 299 297 293 292 292 292 292 292 291 291 291 291 291 291 291 292 292 292 292 293 293 291 292 293 291 288 288 289 290 289 289 288 286 284 283 282 282 280 280 279 279 278 277 276 274 273 273 273 273 272 272 271 271 270 270 269 268 268 268 267 267 267 267 267 266 266 265 265
304 303 303 302 302 303 302 302 302 303 302 303 304 301 298 298 298 296 296 297 295 292 292 292 291 291 291 291 290 290 290 291 291 291 291 292 291 291 292 292 292 293 292 289 287 288 290 290 290 288 286 284 283 282 282 281 280 279 279 278 278 277 275 274 273 273 273 272 272 271 270 270 270 269 269 268 268 267 267 267 266 266 266 266 266 265 265
304 303 303 303 302 302 303 302 302 302 302 302 303 302 300 298 297 296 295 294 293 291 292 292 291 291 292 292 290 290 291 291 290 290 290 290 290 290 291 292 293 292 290 287 288 290 291 290 289 287 285 283 283 282 281 281 280 279 278 278 277 276 275 273 272 272 272 271 271 270 270 269 269 269 268 268 267 267 267 267 266 266 266 265 265 265 265
304 303 303 302 302 302 304 304 302 301 302 301 300 300 300 298 297 297 297 295 292 291 291 290 290 290 291 291 290 290 291 291 290 290 290 289 289 291 293 293 291 289 288 288 289 290 290 289 288 286 284 283 282 282 281 280 279 278 278 278 277 275 274 273 272 272 271 270 270 270 269 269 269 269 268 268 267 267 267 266 266 266 265 265 265 265 265
304 303 303 304 303 302 304 304 301 300 300 299 298 298 298 298 297 297 296 293 291 290 290 290 289 289 290 290 290 290 289 290 291 290 289 288 290 292 292 290 288 288 289 290 290 290 289 288 286 285 283 283 282 282 281 279 278 278 277 277 276 275 273 272 272 271 271 270 270 270 269 269 268 268 268 268 267 267 267 266 266 266 265 265 265 265 265
305 303 303 306 305 301 301 303 303 301 299 297 296 296 296 295 294 293 292 291 290 290 290 289 289 289 289 290 290 290 289 289 290 288 287 288 292 291 288 288 289 290 291 291 291 290 289 288 285 283 283 283 282 281 280 278 277 277 277 276 275 274 272 271 271 271 270 270 270 270 269 269 268 268 268 268 267 267 267 266 266 266 265 265 265 265 264
305 302 304 307 306 301 300 301 300 298 295 294 293 293 293 292 292 292 291 291 290 290 289 290 290 289 289 289 290 290 289 288 289 288 287 289 291 289 287 289 291 290 290 292 292 290 288 286 284 283 283 282 281 280 279 277 277 277 276 275 274 273 272 271 270 270 270 270 270 269 269 268 268 267 267 267 267 267 266 266 266 266 265 265 265 265 264
304 303 305 306 304 300 299 298 296 293 293 293 293 292 292 292 292 292 291 291 290 290 290 289 289 289 289 289 290 290 289 289 290 289 287 287 290 290 290 292 292 289 288 290 291 288 286 285 284 284 283 281 280 279 278 277 277 277 276 274 273 272 271 270 270 270 270 270 269 269 268 268 268 267 267 267 267 267 266 266 266 266 265 265 265 265 264
303 302 302 301 298 296 295 294 294 294 293 293 292 293 293 292 292 292 291 291 290 290 290 289 288 290 290 289 289 290 289 289 290 289 288 289 292 291 289 291 293 291 289 288 287 286 285 285 284 283 281 280 279 278 277 277 277 276 275 273 273 272 271 271 270 270 270 269 269 269 268 268 267 267 267 267 267 266 266 266 266 265 265 265 265 265 264
302 300 298 298 299 297 295 294 296 296 294 293 293 293 292 292 292 291 291 291 290 290 290 289 289 289 289 289 291 292 290 287 287 289 291 293 291 288 288 290 293 292 289 286 286 285 285 284 282 281 280 279 278 278 277 277 276 275 274 273 272 272 272 271 271 270 270 269 269 268 268 267 267 267 267 266 266 266 266 266 265 265 265 265 265 265 264
301 299 296 296 298 297 295 295 297 297 295 294 293 292 291 292 291 291 290 291 290 290 290 290 288 288 289 292 293 292 289 286 287 289 291 289 286 288 291 293 291 289 287 286 285 284 283 282 281 280 280 279 278 278 277 277 276 274 273 272 272 272 271 271 270 270 270 269 269 268 268 267 267 267 266 266 266 266 266 266 265 265 265 265 265 264 264
300 297 295 295 296 295 294 294 295 294 293 293 293 292 291 292 291 290 290 291 290 290 290 289 288 290 292 292 290 288 288 288 289 291 291 288 286 288 292 291 288 287 286 285 284 283 282 281 281 280 280 279 278 277 277 276 275 273 273 272 272 272 271 271 270 270 269 269 268 268 268 267 267 267 266 266 266 266 266 266 265 265 264 264 264 264 264
Wind_Speed
11 12 14 14 14 16 17 17 15 13 12 13 14 12 8 6 5 5 8 9 6 2 1 1 2 2 2 1 1 1 1 0 0 0 0 0 0 1 0 1 1 1 2 2 3 2 2 2 1 2 2 2 1 2 5 5 3 2 0 1 4 3 1 2 4 4 1 2 1 1 2 2 2 2 3 3 2 3 1 3 1 1 2 2 3 3 2
11 13 15 15 15 16 16 15 14 13 13 14 15 12 9 7 5 4 7 9 5 2 1 2 2 2 2 1 1 1 1 0 1 1 1 1 1 1 1 2 2 2 2 2 2 2 1 1 3 1 2 1 1 2 3 3 4 3 0 1 4 3 1 1 4 4 2 2 1 2 2 3 3 2 4 4 4 4 1 1 1 1 3 2 3 4 1
11 14 15 15 16 16 15 13 13 13 13 14 14 12 9 7 4 2 6 9 7 5 2 2 1 1 1 1 0 0 1 1 1 1 2 2 2 2 1 2 2 2 1 1 3 1 1 1 1 1 2 1 1 2 2 2 3 3 0 1 2 2 1 2 2 3 3 3 2 2 3 3 2 2 4 4 4 4 1 2 1 1 3 4 3 5 4
12 14 15 15 16 14 13 12 12 12 12 13 13 11 8 5 2 2 4 7 9 8 6 4 2 0 1 0 0 1 0 1 1 1 1 1 1 1 1 1 1 2 1 2 4 2 3 1 2 1 2 1 1 1 2 1 1 2 2 2 1 1 2 2 2 4 4 4 5 4 5 5 4 3 4 2 2 4 2 1 1 2 4 4 3 6 11
13 14 15 15 14 13 12 11 12 11 12 12 11 10 8 4 1 2 3 4 6 7 7 8 3 1 1 0 1 2 1 1 2 1 1 1 1 1 2 1 1 1 2 2 2 1 2 2 1 1 2 1 1 1 2 2 1 2 3 3 2 1 3 2 1 4 5 6 9 8 6 5 4 5 5 2 4 4 2 1 3 4 4 4 4 10 13
13 14 14 13 12 11 11 11 11 11 11 11 10 9 8 4 1 1 1 2 2 2 4 7 4 1 2 1 1 2 2 2 1 1 0 0 1 1 1 0 1 2 3 2 2 4 2 1 1 0 1 1 1 1 2 2 1 2 2 2 2 1 2 1 2 4 7 9 11 9 5 3 4 6 6 5 4 3 3 1 4 4 3 6 8 12 12
12 12 12 11 11 11 11 11 11 10 10 10 9 7 6 4 2 2 2 1 1 1 3 5 3 1 1 1 1 2 3 3 1 0 0 0 0 1 1 2 2 2 3 2 2 3 3 1 1 0 1 2 2 1 1 1 1 0 1 1 2 1 1 0 1 5 8 8 7 4 2 2 6 7 7 7 6 4 4 2 5 6 5 7 11 13 10
11 11 11 11 11 11 11 11 11 10 10 9 7 6 4 3 2 2 2 0 1 2 3 3 2 1 0 1 1 2 3 3 1 1 2 1 1 1 2 3 4 3 1 2 2 2 2 2 2 1 1 2 1 1 2 2 0 0 1 1 2 1 0 1 1 4 5 2 1 1 3 5 7 7 8 8 7 8 7 6 7 7 7 8 11 12 7
10 10 10 10 11 11 11 11 11 10 9 8 7 5 4 4 3 3 2 1 1 1 2 2 2 1 1 2 2 2 3 4 2 1 3 2 1 2 3 5 5 3 3 2 1 3 3 2 3 3 2 3 3 2 3 4 2 1 1 1 1 1 2 3 2 3 3 1 1 1 6 9 8 8 8 8 6 6 6 6 6 7 9 9 9 6 4
10 10 10 10 11 11 11 11 10 10 9 7 6 5 5 5 4 3 3 2 0 2 2 2 1 1 1 3 3 2 2 3 3 1 2 3 2 2 2 4 4 2 2 0 2 3 4 3 4 4 4 3 3 3 3 4 2 1 1 0 0 1 2 3 2 3 3 2 6 4 5 6 4 5 6 6 6 7 7 7 7 7 7 6 4 4 6
10 10 11 11 11 11 11 10 10 9 8 7 6 5 5 5 4 3 3 1 1 2 3 2 2 1 2 3 3 2 2 3 3 2 1 1 2 3 3 3 3 2 0 2 4 6 6 4 2 2 2 2 2 2 3 5 4 3 2 0 1 0 2 3 1 1 3 6 9 6 0 1 1 3 5 5 5 8 9 8 7 7 7 5 5 6 10
11 11 12 12 12 12 11 10 10 9 8 7 6 5 4 4 3 3 3 2 1 2 2 2 2 2 2 3 2 1 2 2 1 0 1 2 3 5 4 2 2 2 2 6 8 7 5 1 2 4 4 4 5 5 5 6 5 4 3 2 1 2 2 3 1 1 3 6 6 4 2 1 4 5 7 7 5 8 11 8 5 8 9 9 9 10 12
12 12 12 12 12 11 11 10 9 8 8 7 6 5 3 3 3 2 2 2 1 2 2 2 4 4 4 3 2 1 1 2 2 1 1 2 2 4 3 2 2 3 6 9 8 4 2 2 3 3 3 4 4 5 6 5 4 4 3 2 1 2 2 2 1 1 2 3 4 3 1 3 3 5 11 11 8 11 15 12 6 8 9 10 10 11 16
12 12 12 12 11 11 11 10 9 8 8 6 5 5 3 3 2 1 2 1 1 4 4 2 3 5 5 3 3 2 2 1 1 1 1 2 1 2 4 4 4 5 7 7 5 2 2 1 1 1 2 2 1 1 2 3 4 4 3 3 2 2 2 2 1 1 1 1 4 2 3 3 6 7 8 10 8 8 11 10 4 7 12 13 11 13 21
12 12 11 11 12 11 11 11 10 9 8 7 6 5 3 3 2 1 1 1 1 4 5 3 1 5 5 3 4 3 2 2 1 2 1 0 1 2 4 5 4 4 5 4 3 2 1 1 2 2 0 0 1 0 2 1 1 2 2 2 2 3 2 1 1 1 3 2 4 2 2 1 4 5 8 10 12 13 14 10 3 6 18 24 20 18 24
11 11 12 12 12 12 12 12 11 10 9 8 7 6 4 3 3 1 1 2 1 1 2 3 2 3 4 3 3 3 1 2 2 0 1 1 0 2 5 5 3 3 4 3 3 3 1 0 2 2 1 0 1 1 1 1 1 1 3 3 1 3 2 1 0 2 3 3 2 3 2 0 4 7 10 12 17 22 17 8 3 7 22 30 26 24 27
12 12 12 13 13 13 13 13 12 12 11 10 8 7 6 4 3 2 1 3 3 2 1 3 2 2 3 3 2 3 3 3 3 2 0 1 1 2 5 5 3 3 4 3 2 2 1 1 2 2 1 1 0 2 1 1 1 2 2 2 3 5 4 2 3 3 4 4 2 2 0 2 6 9 11 17 24 22 11 4 4 14 26 28 25 26 29
12 12 12 13 13 14 14 14 13 12 12 11 9 8 8 6 4 3 2 3 3 3 4 4 2 1 1 1 2 3 4 4 4 3 1 2 2 3 6 4 3 2 2 2 2 2 2 1 1 2 1 0 1 1 2 3 2 3 4 2 4 5 3 3 5 3 5 3 3 3 1 2 9 13 16 26 27 13 2 4 9 20 29 29 26 27 28
12 12 12 13 13 14 14 14 14 13 12 12 11 10 9 7 5 3 2 2 2 3 3 4 4 4 2 2 3 4 4 4 4 3 1 1 3 8 6 1 1 2 2 2 1 1 2 1 1 1 1 1 2 1 3 4 2 3 4 3 4 4 3 3 4 3 5 3 3 3 2 4 16 20 19 25 18 3 3 12 16 22 28 29 28 27 25
11 11 11 12 13 14 14 14 14 13 12 12 11 10 9 8 6 4 3 2 5 8 6 4 6 7 6 6 6 6 5 4 4 4 2 2 8 11 5 1 3 4 2 1 1 1 1 2 1 1 1 2 1 2 3 3 3 4 3 2 3 3 2 3 4 3 2 3 3 3 2 7 24 23 14 14 10 4 12 20 22 23 25 26 27 26 23
12 11 11 12 13 14 14 14 14 14 12 12 12 11 10 9 8 6 6 4 3 7 8 7 8 9 9 9 9 8 7 6 6 5 4 4 6 7 2 1 5 5 2 2 2 0 1 1 1 1 0 1 1 2 2 3 3 5 5 3 2 2 1 2 3 2 2 2 3 4 2 9 22 21 10 8 11 15 21 24 24 23 23 24 25 24 24
12 12 12 12 13 14 14 15 15 14 13 12 12 11 10 9 9 8 7 5 5 9 10 10 10 10 10 10 10 9 8 8 7 7 7 5 4 5 3 2 5 5 4 4 2 1 1 2 1 1 2 2 3 3 2 2 1 3 5 4 2 3 5 3 3 1 4 4 3 7 10 15 24 23 15 14 20 24 25 23 20 21 22 24 24 25 27
12 12 12 13 13 14 14 14 15 14 13 12 11 11 10 9 9 9 8 7 10 15 14 11 10 10 11 11 10 9 9 8 8 8 9 7 4 4 4 4 4 4 4 4 3 3 3 3 1 1 3 2 2 2 3 4 2 2 4 4 2 7 13 9 3 3 8 6 5 13 17 22 29 25 16 17 23 25 23 20 18 19 22 24 23 24 29
12 13 13 13 13 13 14 14 14 13 13 11 10 10 10 10 10 9 7 6 8 10 10 9 9 10 10 11 10 9 10 10 9 8 8 7 4 2 3 5 5 3 3 5 4 3 3 2 2 2 3 2 3 2 3 4 2 2 4 3 1 8 16 11 3 5 7 4 8 17 19 24 27 21 15 19 24 23 21 20 19 20 22 24 23 25 28
13 13 13 13 13 13 13 13 13 12 12 11 9 8 9 10 9 8 6 5 5 5 5 6 8 9 9 9 10 10 10 10 10 9 8 7 5 3 4 6 5 4 4 5 5 4 3 2 2 3 3 4 6 4 2 2 3 3 4 3 2 7 12 8 3 5 6 6 7 19 22 21 17 13 16 24 26 22 20 20 20 21 23 23 24 25 28
13 13 13 13 13 13 12 12 12 11 11 11 9 7 8 9 9 8 6 4 4 5 5 4 6 9 9 9 11 12 12 11 10 9 8 8 6 5 5 4 4 6 6 6 7 7 6 5 5 3 2 4 7 5 3 5 7 5 4 4 5 8 8 6 6 6 6 6 12 21 19 11 8 13 21 26 24 21 21 21 21 22 22 24 26 26 26
13 13 13 12 12 12 12 11 11 10 11 11 9 6 6 7 9 9 7 3 3 3 4 4 5 8 10 12 12 12 12 12 11 10 9 9 7 6 5 5 6 8 7 5 6 8 9 7 6 4 4 7 9 7 5 7 8 5 3 6 9 6 5 6 7 5 4 6 13 19 14 9 12 23 28 26 22 22 22 23 22 22 24 27 30 30 28
13 12 12 12 11 11 11 11 10 10 10 10 9 6 5 6 8 9 7 4 1 1 6 10 9 7 8 11 12 13 13 12 11 10 9 9 9 8 8 9 10 10 9 7 7 8 8 5 4 4 5 6 6 4 5 7 6 4 3 7 11 8 6 7 7 5 7 12 17 19 16 16 22 29 28 23 21 22 23 23 23 24 27 29 31 32 32
12 12 12 11 11 10 10 10 10 9 9 10 9 6 4 5 8 9 8 6 3 4 12 15 9 6 6 8 10 12 13 12 11 11 10 10 10 10 10 11 12 11 10 10 11 11 9 8 7 6 4 4 3 2 3 4 3 3 4 9 10 8 7 9 9 10 14 17 19 20 19 21 26 27 24 22 22 22 23 23 24 27 29 30 30 29 30
13 12 12 11 10 10 10 10 9 9 10 11 9 6 4 5 7 8 7 6 5 5 8 9 6 5 8 11 11 11 12 12 11 10 11 10 10 9 9 11 12 12 11 11 12 10 8 8 8 7 6 5 4 2 1 2 2 3 7 11 10 9 9 10 10 13 16 18 20 22 23 24 24 21 19 20 21 21 23 25 26 28 30 30 30 29 28
14 13 12 11 9 9 10 9 9 9 10 10 9 6 3 4 6 7 5 5 4 4 5 7 7 6 5 9 13 12 11 11 11 10 10 10 11 10 9 11 12 13 13 14 13 10 7 6 6 6 6 8 6 3 2 2 2 2 8 12 12 11 11 11 13 14 16 18 22 23 22 20 19 18 19 20 19 21 24 26 27 28 30 30 29 27 27
13 12 11 10 8 8 9 8 9 10 11 11 10 10 7 6 7 7 6 5 5 4 4 6 6 4 3 4 11 14 11 9 10 10 9 8 10 11 11 11 11 12 12 11 9 7 6 7 8 8 8 8 7 4 3 3 2 3 9 13 14 12 11 14 16 15 15 18 22 22 20 17 16 18 20 21 21 23 26 26 27 28 29 29 27 25 25
12 12 10 8 8 7 7 7 8 10 11 11 13 13 12 10 9 8 6 5 5 4 3 3 3 2 2 3 6 14 13 8 7 8 6 5 7 8 8 8 9 9 9 8 5 5 6 7 8 8 8 8 7 4 3 3 2 5 11 14 14 12 13 16 16 14 16 19 19 18 19 19 19 19 19 20 23 26 26 27 29 30 28 28 27 25 26
11 10 9 7 7 7 6 6 7 7 8 10 12 14 14 13 11 10 7 5 4 5 6 5 2 2 1 3 1 11 14 8 5 5 4 3 5 5 4 4 5 6 9 9 8 7 7 6 6 5 5 6 6 4 3 3 5 8 12 14 13 14 16 16 14 15 18 20 18 16 16 17 18 18 18 21 25 26 26 27 29 29 29 28 25 23 26
10 9 8 7 7 6 6 6 5 5 6 8 11 12 12 12 13 13 11 8 6 5 7 8 5 3 2 1 1 9 14 10 6 6 4 3 3 3 3 3 4 4 5 6 6 6 5 4 3 3 2 3 3 2 1 4 6 9 13 14 14 15 16 15 15 18 20 19 18 16 14 14 16 18 20 24 27 27 26 28 28 26 26 25 22 22 29
9 8 7 6 7 6 6 5 4 2 3 5 7 8 9 9 10 12 13 14 13 10 7 6 5 4 3 1 2 9 12 8 6 7 4 3 3 3 2 2 3 3 3 4 5 5 4 3 2 2 2 2 2 2 2 4 6 10 13 13 13 15 15 14 17 21 21 18 16 15 13 14 16 19 22 26 27 26 27 29 28 26 26 24 22 25 32
9 8 7 6 6 6 5 5 4 2 2 2 3 5 7 7 6 7 10 14 17 16 13 8 5 5 4 2 4 10 10 6 5 5 4 4 4 3 2 3 2 2 3 4 3 3 4 4 3 2 2 2 4 4 3 4 5 10 13 13 14 15 15 16 18 20 19 17 15 13 13 15 17 21 26 28 26 26 28 29 28 28 28 28 28 31 34
8 7 7 7 6 5 5 5 4 3 3 2 2 4 6 6 4 5 8 11 12 15 15 11 7 8 7 3 5 9 8 5 5 3 3 5 5 2 2 3 2 2 2 2 1 2 3 3 3 2 1 3 5 4 3 3 7 11 13 14 15 15 16 17 18 17 16 16 16 15 16 19 23 28 30 29 27 28 30 29 29 29 30 30 31 32 34
8 6 6 7 6 5 4 4 4 4 3 3 3 3 4 6 4 4 7 8 7 9 12 10 7 9 10 5 4 7 8 6 5 3 3 5 4 1 1 2 2 2 1 1 1 2 1 1 1 1 2 5 6 4 2 5 10 14 14 14 15 16 17 18 17 14 12 13 13 13 15 21 27 31 31 29 29 30 30 29 30 30 30 30 31 32 33
7 6 5 5 6 6 5 3 2 2 2 3 3 3 4 6 6 4 4 4 4 6 9 7 6 8 9 6 4 5 8 7 4 2 3 4 3 2 2 1 1 1 0 0 1 1 0 0 1 1 1 5 7 3 4 9 14 16 15 14 15 16 17 18 17 13 11 11 11 12 16 22 26 27 26 27 28 29 29 29 30 30 30 30 30 31 32
7 6 5 4 5 5 6 5 3 1 2 3 3 3 4 5 5 5 4 3 2 4 8 9 7 7 9 8 5 4 6 7 4 2 2 3 4 4 2 0 1 2 0 0 2 2 0 0 1 1 2 6 5 1 7 13 17 18 15 15 16 16 18 19 17 12 10 11 13 16 21 24 24 23 23 24 25 26 27 28 28 28 29 29 30 30 31
7 6 4 4 4 4 4 5 5 3 2 3 3 2 2 2 3 4 5 3 1 4 8 9 8 8 10 9 7 4 5 7 6 2 1 3 4 3 0 0 1 1 0 2 3 1 0 0 2 1 4 6 3 3 9 16 20 19 15 15 17 18 20 20 16 10 9 12 16 19 22 24 23 22 21 22 23 23 24 25 26 27 28 28 29 30 30
7 6 4 2 4 5 4 5 7 5 3 3 3 2 2 2 2 1 2 2 3 5 6 9 10 10 7 7 7 5 5 6 5 2 1 2 4 2 1 1 1 0 1 2 2 0 1 2 2 2 5 5 1 6 14 20 22 18 15 17 19 20 21 19 14 9 10 14 17 21 23 24 23 22 21 21 22 22 22 23 24 26 27 28 29 29 29
7 7 4 1 4 6 4 4 6 6 3 2 2 2 2 3 2 1 2 3 5 6 7 11 12 9 6 6 8 6 3 4 5 3 2 3 3 1 1 1 1 1 1 1 1 0 2 2 1 4 4 1 4 12 20 24 21 17 16 18 20 21 21 17 12 10 13 16 19 22 24 23 23 22 21 20 21 22 23 24 25 26 27 28 29 29 29
6 7 4 1 5 8 5 2 4 5 2 0 1 1 1 2 2 1 3 5 6 7 10 13 12 9 6 6 6 3 3 4 4 2 2 3 2 1 1 0 1 1 1 0 0 1 2 1 3 5 2 4 10 17 23 23 18 16 18 20 21 21 19 14 10 12 16 19 21 24 24 23 23 23 22 21 20 21 23 24 25 26 27 28 29 29 29
6 6 4 2 3 7 5 2 2 2 2 0 1 1 0 2 3 3 6 7 8 9 11 11 9 7 6 5 4 2 3 4 2 1 2 2 1 0 1 1 0 2 1 1 2 2 2 1 4 3 3 10 15 21 23 20 16 16 19 21 22 21 18 13 12 15 18 20 22 23 23 23 23 23 22 21 21 21 22 23 24 26 27 29 30 30 30
5 6 5 3 2 4 4 2 0 0 1 0 1 1 2 3 5 5 7 8 9 10 10 8 6 4 4 4 2 2 3 3 2 2 2 1 1 1 1 1 1 1 0 1 3 3 1 2 2 3 9 15 20 23 22 18 15 17 20 21 21 20 17 14 15 17 19 21 22 23 22 23 23 23 22 22 21 21 22 23 23 24 26 28 29 29 30
5 5 5 3 1 1 2 2 2 2 1 2 2 2 3 4 5 5 6 8 9 9 8 6 4 3 3 2 2 2 3 4 3 1 2 1 1 1 2 2 1 1 1 3 3 2 1 0 4 9 15 19 22 23 21 17 16 19 21 21 20 18 16 16 18 19 20 21 22 22 22 23 23 22 23 22 22 22 22 22 23 24 26 27 29 30 30
9 7 5 5 3 2 3 4 4 1 1 3 3 3 3 4 5 6 7 8 9 8 5 3 3 2 2 2 1 1 2 3 2 1 2 2 1 0 1 1 2 3 3 3 1 2 2 5 10 14 18 21 22 22 20 18 19 20 21 20 19 18 17 18 18 19 20 20 21 21 22 22 22 22 23 23 23 23 23 23 24 25 26 27 28 29 30
11 9 7 6 4 3 3 3 2 1 0 1 3 4 4 4 6 8 7 7 8 7 4 2 2 1 1 1 1 1 1 2 1 0 1 1 1 1 1 2 3 2 2 2 1 3 6 10 14 17 20 22 22 21 20 20 20 20 19 18 18 18 19 19 18 19 19 19 20 20 20 21 21 22 23 23 23 23 23 23 24 25 25 25 27 28 29
8 7 6 5 3 4 4 2 1 1 1 0 1 3 4 5 6 8 8 7 6 5 3 2 2 2 1 2 1 0 0 1 1 1 1 1 2 2 2 3 3 2 3 1 3 7 10 13 16 19 21 22 22 21 21 20 20 19 18 17 18 18 19 18 18 18 18 18 18 19 19 20 20 21 21 21 22 23 23 23 24 24 24 26 27 28 29
5 4 4 3 4 5 4 2 1 2 1 1 1 2 4 5 7 8 7 5 4 3 2 2 2 1 1 0 0 1 1 1 1 1 2 2 4 4 3 3 2 1 2 4 7 10 12 14 17 20 22 23 23 21 20 20 19 18 18 18 18 19 18 18 18 18 18 17 17 18 18 18 19 20 20 20 21 23 24 25 25 25 26 27 28 28 29
Wind_Direction
345 344 343 345 345 343 342 343 348 353 353 353 353 355 356 342 313 320 343 353 356 15 84 26 26 76 95 109 76 51 57 72 347 26 69 26 331 283 261 75 11 11 29 346 345 16 327 311 22 17 33 54 22 334 342 338 328 319 313 68 15 351 238 254 275 263 69 80 235 329 345 352 54 66 34 37 56 72 129 243 300 340 262 268 260 249 262
337 338 341 344 343 341 342 345 351 356 356 356 358 356 349 335 314 324 359 8 19 53 56 355 30 90 146 175 95 95 123 30 318 97 55 22 12 306 318 60 25 10 39 315 311 14 360 11 59 25 347 39 36 354 9 14 12 15 123 359 358 345 225 360 322 299 348 24 341 347 349 5 35 50 44 54 63 53 32 247 12 254 234 242 254 257 263
334 338 339 340 340 340 342 347 352 356 356 357 358 356 353 346 330 333 4 16 37 75 77 358 360 93 122 144 73 207 144 66 344 45 40 14 6 340 333 37 343 323 36 267 272 258 210 289 50 26 337 50 105 352 19 61 31 26 106 296 342 325 281 334 332 301 316 327 324 344 352 346 349 62 61 46 49 54 10 313 28 261 327 352 281 271 320
334 335 336 338 339 340 343 346 350 353 353 354 356 360 2 354 341 336 350 18 47 74 70 26 349 39 48 114 263 310 292 108 101 70 50 3 344 302 264 331 292 254 278 279 278 226 174 183 12 360 345 32 166 342 10 50 15 7 8 358 355 308 290 291 263 255 275 295 295 319 355 334 319 20 52 61 78 72 53 349 287 298 333 328 288 323 333
333 333 336 338 340 342 344 346 349 348 348 351 355 2 6 1 4 360 336 8 48 69 56 32 18 20 13 72 69 348 331 114 100 90 91 354 335 265 233 276 284 273 325 317 307 317 168 159 62 331 295 286 149 87 45 19 5 39 28 10 6 289 285 320 305 275 289 302 298 310 333 319 321 14 26 59 106 96 78 12 292 320 331 289 327 349 329
332 334 338 341 343 346 346 346 347 345 345 349 352 1 10 10 50 40 360 9 32 39 23 17 14 14 10 64 95 356 351 38 39 31 91 301 323 311 181 207 272 298 349 337 310 335 334 181 120 126 283 309 274 121 72 38 37 64 38 23 38 321 281 360 25 298 290 282 280 286 297 319 36 42 21 30 75 105 109 259 294 326 313 288 325 334 316
336 340 342 344 344 345 344 343 342 341 342 347 351 359 8 11 21 18 7 18 360 305 333 347 343 321 355 83 75 357 5 32 43 343 314 158 80 334 24 57 17 358 15 332 287 338 344 275 255 45 353 309 287 303 23 64 139 358 12 43 41 22 259 242 222 274 282 275 270 267 229 86 63 51 27 24 28 32 46 6 335 344 318 303 319 314 309
344 345 344 344 344 344 344 343 342 342 341 343 351 357 356 357 358 346 340 314 274 325 340 331 308 270 202 88 25 340 18 35 28 21 12 3 51 3 350 8 354 329 304 273 272 23 27 267 281 3 22 336 335 21 11 28 61 336 61 31 9 60 57 301 250 280 299 295 237 221 125 96 73 55 30 22 24 23 22 4 350 342 315 307 315 307 311
351 349 348 349 349 349 349 348 347 347 345 345 350 353 351 343 329 316 317 279 255 347 337 290 296 333 22 20 346 350 40 25 334 19 58 38 28 15 349 344 332 267 224 242 360 43 34 347 322 338 332 327 343 356 5 16 9 350 79 360 336 72 321 312 327 313 302 205 273 10 95 88 71 53 26 13 25 27 9 346 333 324 317 321 330 330 336
355 353 352 351 351 351 350 348 349 350 350 349 347 346 346 342 334 326 316 298 6 2 314 288 327 31 12 15 18 24 38 17 345 357 80 73 54 14 329 325 318 277 216 26 21 4 339 302 299 313 303 298 319 337 5 25 25 354 61 263 301 38 316 310 343 319 289 311 329 345 97 97 57 41 21 9 24 20 358 337 326 334 348 347 344 350 340
356 354 354 353 353 353 352 349 350 352 350 349 349 348 345 340 342 347 336 320 5 344 331 360 45 61 27 20 21 18 20 27 29 36 105 93 26 345 326 312 308 308 352 349 336 325 313 296 297 358 7 7 29 59 54 55 57 37 26 165 186 311 277 284 323 301 286 314 323 318 225 133 78 57 25 15 33 20 353 328 333 13 36 22 346 345 347
358 357 357 357 355 355 354 352 352 353 351 350 350 349 348 344 344 354 349 331 322 341 6 49 53 43 35 19 360 3 17 358 346 357 245 284 328 340 346 336 299 290 309 319 323 323 315 305 109 94 87 89 92 90 73 61 59 51 49 60 314 284 281 290 280 216 276 307 328 333 333 140 139 98 38 24 30 12 349 335 11 44 35 12 356 351 348
2 1 360 359 359 358 359 358 357 356 355 353 351 350 352 349 345 360 358 333 360 33 39 90 74 49 33 22 5 318 320 311 291 234 247 270 319 350 348 331 292 278 299 314 322 321 292 194 140 111 105 115 105 86 71 54 44 43 44 34 346 287 292 303 277 258 296 326 344 348 59 93 83 50 27 17 11 3 351 345 19 44 26 10 354 341 345
6 5 5 6 8 9 10 9 9 7 4 1 359 358 358 351 341 357 4 337 59 49 48 108 75 26 8 4 351 302 266 263 232 172 210 253 293 331 325 317 301 293 307 317 309 278 263 232 193 149 134 140 109 76 85 44 23 24 18 9 357 310 313 344 339 356 56 337 313 287 154 76 29 23 10 4 5 359 338 320 340 46 25 6 352 343 346
11 12 14 17 19 21 22 21 21 20 17 16 14 10 7 5 358 6 25 13 62 58 55 70 345 335 339 355 356 330 238 197 200 190 180 261 290 321 330 331 324 315 324 324 284 246 270 304 300 308 225 148 340 164 150 122 17 9 348 333 322 302 305 36 20 8 57 13 318 308 213 236 28 11 346 353 352 331 315 297 274 39 16 3 357 349 343
18 20 24 26 27 28 29 29 29 29 27 26 26 23 20 17 16 35 71 29 14 49 44 31 346 325 321 327 11 12 332 316 348 82 137 115 259 327 344 347 345 336 333 322 267 245 254 236 274 299 300 357 304 246 188 143 136 341 306 280 318 327 287 207 308 339 26 22 316 306 286 211 42 354 336 350 342 323 314 290 248 10 7 0 351 338 333
24 28 30 32 33 33 32 32 32 32 30 29 29 26 23 27 34 47 75 54 58 99 37 356 333 318 311 294 353 16 351 336 339 323 308 109 180 322 347 348 341 338 340 327 261 242 280 267 263 303 329 62 359 266 276 57 69 14 317 289 22 11 336 8 40 1 352 353 298 297 39 76 15 343 337 347 340 327 318 286 309 351 353 350 344 336 335
30 34 35 35 35 33 32 31 30 29 29 28 28 26 24 28 31 36 80 93 85 90 57 25 26 91 18 356 17 14 4 359 342 304 275 128 114 348 334 330 333 332 332 332 305 290 304 292 323 346 313 339 41 318 6 22 16 5 355 351 27 19 344 19 52 14 341 335 304 313 144 92 357 346 354 356 346 334 330 318 328 339 336 335 344 345 339
35 38 38 37 33 29 28 28 26 27 28 26 26 26 25 28 30 35 58 86 99 107 83 51 66 86 83 58 40 32 28 18 355 328 305 131 7 339 321 275 360 321 264 270 309 318 315 310 75 14 309 357 45 64 39 31 8 354 3 15 27 12 335 12 52 20 338 312 304 313 180 53 8 358 5 10 4 336 328 333 329 335 334 335 344 344 339
38 39 36 32 27 25 25 24 23 24 25 26 27 27 29 32 32 32 33 47 95 102 93 74 75 72 66 63 55 49 46 24 5 12 17 319 332 338 330 173 360 336 277 278 333 359 13 6 13 22 341 4 56 114 86 68 52 19 22 53 24 357 329 358 11 9 340 312 332 333 236 17 13 7 9 24 25 332 330 332 328 334 340 340 339 338 338
36 34 30 25 22 21 21 21 21 22 22 26 28 28 34 40 37 38 36 28 82 96 86 79 78 70 67 65 59 56 54 41 35 38 21 337 341 356 351 278 345 359 7 341 327 261 78 13 360 22 18 360 51 85 108 122 80 34 39 66 20 2 53 9 339 14 30 307 323 19 26 10 14 13 6 6 0 343 340 337 331 334 341 339 334 332 336
31 28 25 21 19 19 19 18 19 20 20 23 26 28 36 42 37 35 35 36 80 98 96 90 82 74 71 65 55 51 48 43 42 33 14 5 23 30 11 332 357 9 5 352 331 279 21 20 334 344 28 47 53 52 61 122 96 16 23 39 41 33 23 341 261 322 349 280 275 24 24 7 3 3 357 349 347 343 341 339 335 335 337 335 330 329 332
28 25 22 19 17 16 17 16 16 18 18 20 23 27 33 35 33 35 38 57 86 93 93 90 81 70 64 57 51 47 42 37 36 28 18 20 34 38 31 21 11 360 4 12 354 322 357 9 334 12 49 31 20 64 63 55 69 66 33 30 79 49 19 349 287 354 346 320 15 27 14 355 348 347 347 347 344 341 340 341 340 337 334 331 326 326 329
24 20 18 16 14 13 13 13 13 14 16 18 19 23 28 30 31 34 40 58 81 88 85 75 64 57 52 48 46 42 36 32 29 25 25 26 27 37 21 5 3 12 22 22 10 352 359 347 324 56 69 360 346 57 77 53 53 68 41 27 81 39 17 353 329 13 341 316 45 32 5 341 335 333 340 346 342 337 338 340 337 334 333 330 325 323 326
17 14 12 9 8 8 8 9 10 11 12 15 15 17 25 28 28 28 35 53 76 93 92 69 56 55 55 52 47 41 34 31 26 24 28 28 25 29 5 354 11 30 16 20 36 30 11 355 19 74 74 18 16 36 71 60 46 42 54 58 319 346 357 347 338 353 310 276 356 3 344 326 323 333 345 344 338 335 336 336 332 328 330 330 326 324 325
8 6 5 3 3 3 3 4 7 8 9 10 8 9 17 24 27 24 27 57 94 106 106 85 66 65 61 53 48 42 35 30 27 27 30 30 29 36 26 24 57 58 43 52 58 48 45 50 45 44 33 30 45 58 75 77 71 68 75 56 350 328 338 339 323 317 296 290 335 345 337 318 316 337 339 337 336 334 334 334 331 327 327 329 327 325 324
1 359 358 357 358 358 360 2 3 5 7 6 5 5 11 22 27 23 24 59 105 99 99 107 101 84 67 53 47 42 34 32 30 28 34 40 44 46 45 57 73 62 46 45 52 51 59 63 53 51 74 75 74 78 91 95 88 86 70 29 10 355 346 340 329 317 311 325 338 341 334 309 314 327 331 333 335 335 334 335 333 331 330 330 328 327 327
358 356 354 354 354 355 357 360 1 5 7 6 4 5 8 20 25 21 23 33 356 164 125 120 113 92 63 46 40 38 35 34 34 35 44 55 59 59 63 71 75 64 50 52 66 63 59 63 74 88 92 82 75 89 124 114 92 78 48 21 16 11 348 337 333 314 307 319 330 332 322 306 311 321 326 330 334 335 334 334 332 331 331 330 330 329 328
360 358 355 354 356 356 357 0 3 7 8 4 2 4 12 20 18 17 28 46 54 117 123 115 99 71 57 46 37 38 38 36 39 47 56 64 68 69 73 76 76 72 70 78 84 77 71 76 78 68 61 68 77 132 141 106 78 66 39 19 10 357 336 330 325 310 307 314 323 323 316 309 312 317 322 327 332 335 333 331 330 329 328 328 330 329 327
2 1 358 358 359 358 360 5 7 10 10 5 360 2 19 26 18 17 36 63 77 107 122 116 100 86 74 56 44 42 43 41 46 57 62 65 70 75 81 82 80 80 84 89 89 86 84 83 72 56 55 77 96 109 54 57 104 92 40 14 355 340 333 328 321 313 310 313 316 315 311 311 313 315 319 325 330 333 331 329 328 327 326 327 329 328 326
3 2 360 2 4 2 4 10 13 16 16 13 12 20 32 27 25 33 51 71 83 99 110 106 108 118 93 54 43 42 44 45 51 62 66 68 72 77 83 88 90 88 84 83 82 78 75 78 74 57 49 63 81 88 58 66 114 55 13 356 342 337 334 325 320 315 310 311 315 314 312 314 318 320 324 326 329 330 329 327 326 324 324 326 327 325 325
2 2 3 7 9 7 11 18 21 24 28 35 45 55 60 58 54 57 64 73 79 86 96 98 101 125 154 71 45 38 39 45 48 50 57 68 78 82 80 80 86 88 83 77 73 66 67 81 83 65 50 62 82 88 69 79 99 350 348 344 338 335 329 322 321 318 313 317 321 320 319 322 326 325 324 324 325 327 328 326 325 324 324 325 327 326 326
1 3 8 13 15 17 24 28 30 34 41 52 62 65 64 63 58 53 56 66 68 64 73 100 108 100 141 134 45 28 29 37 37 34 41 65 79 84 79 67 67 71 68 67 77 88 90 95 90 73 61 69 86 99 95 77 39 346 343 342 336 327 323 323 323 320 318 322 323 319 316 317 320 322 321 319 322 326 328 327 326 327 328 329 330 330 330
3 7 15 21 24 30 37 37 42 49 53 61 67 65 61 59 52 44 46 53 60 64 62 64 79 59 68 167 87 22 21 22 24 25 38 70 74 80 85 66 54 56 61 69 86 98 94 91 93 89 71 58 66 94 106 44 9 349 345 342 332 323 324 327 326 322 321 322 321 316 311 312 317 321 320 320 324 328 329 329 331 332 332 332 333 330 330
7 14 22 29 34 41 41 38 49 68 72 72 70 62 57 55 50 47 46 44 53 74 58 46 52 43 13 181 147 11 8 9 21 30 40 71 64 64 81 73 53 51 62 74 83 84 76 67 74 97 87 48 51 87 67 12 356 348 345 341 332 329 330 330 326 324 323 322 322 319 315 317 322 323 322 325 329 330 330 332 335 335 332 332 332 330 332
13 19 26 34 38 40 38 36 43 75 95 88 70 52 44 44 47 50 51 50 58 71 68 55 57 32 352 302 316 348 353 0 17 22 30 47 32 25 51 70 68 67 68 70 67 58 52 55 73 83 74 67 100 118 65 19 352 346 346 338 328 328 330 327 323 323 323 324 325 322 320 323 326 325 325 328 331 331 331 334 337 337 335 334 332 332 335
18 24 30 34 34 34 36 35 38 67 118 112 62 31 24 26 35 45 46 50 55 59 63 72 66 16 350 294 317 342 348 357 8 12 24 22 4 4 45 57 88 108 79 67 69 64 56 65 80 79 60 97 130 123 78 35 357 348 343 331 322 323 325 324 324 324 324 327 329 327 326 326 326 328 330 333 333 333 334 337 339 339 338 336 334 335 338
20 27 33 33 30 27 29 32 45 81 108 92 16 1 7 15 25 29 29 39 47 46 48 60 54 15 3 334 333 352 357 348 342 360 28 14 357 8 66 59 96 132 80 45 90 105 74 64 77 85 106 135 140 127 81 23 355 349 339 325 320 322 323 326 330 329 327 329 332 334 336 332 329 330 334 335 334 334 336 338 339 338 337 337 337 338 340
19 22 27 32 32 32 37 46 65 86 83 33 356 346 2 15 24 18 17 28 38 34 36 45 39 18 14 5 347 3 6 351 334 345 19 14 10 34 55 40 74 105 69 24 106 102 67 43 91 139 175 168 160 141 50 3 354 350 338 321 319 323 324 328 333 330 321 321 325 328 329 325 325 330 335 335 333 333 336 338 338 338 337 338 340 341 341
16 16 19 28 35 40 47 55 66 72 42 7 3 24 33 33 34 20 4 20 42 34 25 19 6 5 11 5 333 348 6 7 354 328 343 356 6 12 355 354 51 70 61 359 42 34 340 129 167 236 180 156 157 147 1 352 351 349 336 318 317 323 325 329 332 328 317 312 309 306 309 316 324 332 335 334 332 333 335 337 337 336 337 339 342 344 343
17 16 19 31 42 46 48 49 43 31 18 14 20 36 38 31 29 26 23 35 45 1 358 360 356 349 353 353 336 327 350 0 358 324 310 338 357 4 348 278 50 60 114 302 340 333 340 123 241 266 99 122 148 234 336 344 347 345 332 316 317 323 325 327 331 332 321 308 302 303 311 321 331 337 336 333 332 333 334 335 334 335 337 341 344 346 345
18 19 27 44 42 34 33 33 27 22 31 34 31 31 29 21 23 29 37 49 20 332 345 357 352 332 329 339 339 322 330 349 360 3 312 334 354 6 10 190 36 54 196 298 326 330 126 285 275 238 110 123 168 296 337 343 342 339 326 313 316 322 324 327 334 335 315 300 301 309 319 328 336 340 338 335 334 333 334 334 333 335 339 342 345 346 346
14 13 14 25 20 15 16 22 22 26 45 48 32 12 360 8 20 33 40 36 11 344 339 344 345 336 330 339 345 334 330 345 359 10 351 335 344 360 54 43 26 26 265 318 330 269 210 265 270 129 116 129 218 328 339 340 338 332 319 313 318 323 325 329 333 325 305 302 308 318 326 332 338 342 343 339 335 334 336 337 336 338 341 343 344 346 347
6 6 1 333 1 8 8 10 20 30 46 41 29 30 355 347 355 341 328 346 352 343 333 337 342 340 332 338 344 339 332 348 1 12 7 349 350 28 76 52 345 286 302 336 348 261 270 272 174 124 115 117 315 329 335 336 333 323 313 315 322 325 327 331 332 316 307 311 318 326 332 335 338 342 345 343 339 338 340 340 340 341 342 342 344 347 349
2 5 11 12 8 12 14 9 21 37 57 351 7 49 26 341 354 335 312 316 320 321 324 331 336 333 327 338 346 342 337 356 5 4 340 347 9 54 81 285 298 348 14 347 307 284 282 258 120 118 107 317 321 328 332 334 328 314 311 319 325 326 329 334 328 312 311 318 325 331 334 336 339 342 345 346 345 343 343 343 343 342 342 342 344 347 351
5 9 29 73 22 16 27 43 9 29 71 60 3 37 359 322 317 308 307 310 314 317 321 327 333 333 336 347 357 349 346 357 8 353 350 6 39 353 300 282 352 29 24 335 281 267 260 101 98 105 312 319 326 329 332 332 323 310 313 320 325 327 332 333 321 312 315 323 329 333 334 337 340 342 344 347 349 347 346 346 344 342 341 342 344 347 350
9 14 34 73 54 14 29 62 106 107 117 114 302 293 302 313 312 312 317 322 323 323 326 333 337 329 328 342 351 343 353 11 26 13 13 43 186 257 354 62 118 26 359 246 261 269 251 97 90 306 312 323 327 329 332 331 318 309 315 322 324 328 333 329 318 317 323 328 331 333 335 338 341 341 342 347 351 350 348 347 346 344 344 343 344 347 349
26 18 32 79 130 360 38 107 142 135 75 10 341 330 329 331 330 326 326 330 331 329 330 338 342 325 319 333 315 292 339 13 24 14 21 65 152 347 10 9 321 300 202 207 239 291 16 351 296 305 317 325 327 329 332 327 315 313 319 323 324 327 330 324 319 323 328 330 331 335 337 339 340 340 341 345 350 351 349 348 349 349 348 346 345 347 350
49 48 61 94 117 119 116 128 136 127 11 1 4 3 353 347 344 336 329 333 339 336 330 337 349 329 312 327 314 283 356 14 13 346 7 31 73 123 50 343 296 284 238 213 231 356 331 299 303 314 321 325 329 331 329 322 316 319 323 323 322 327 329 325 323 327 330 330 332 336 338 337 338 339 341 345 349 350 350 350 352 353 351 348 346 347 350
54 58 65 73 88 119 131 129 131 142 358 360 2 3 360 352 346 342 338 337 341 342 340 346 349 323 307 347 28 50 12 360 10 45 22 36 141 142 152 233 244 244 207 186 235 301 300 303 313 322 326 328 330 329 324 319 320 323 322 320 322 327 329 327 326 329 331 331 333 336 338 337 337 339 343 345 345 346 350 353 353 352 351 350 348 348 350
51 58 61 64 96 139 140 124 136 174 167 173 338 353 1 356 349 346 342 337 342 355 4 349 344 353 5 14 31 93 285 351 43 52 286 227 171 150 194 235 229 161 118 141 277 293 305 317 325 328 329 330 329 325 321 321 324 324 322 322 325 328 328 327 328 329 331 332 334 336 338 338 337 339 342 343 342 343 349 354 354 352 352 352 351 351 353
55 63 68 80 123 146 143 130 159 189 185 207 322 352 1 355 351 351 346 336 340 355 341 316 334 22 34 347 155 145 123 35 24 295 252 217 190 186 200 221 222 195 223 275 294 305 316 325 329 329 329 329 327 324 323 325 327 327 326 325 326 327 327 327 328 330 332 334 335 336 337 337 337 338 340 342 344 346 350 353 354 354 355 355 354 354 355